contact:dominique.lefevre@mio.osupytheas.fr, maurice.libes@osupytheas.fr, didier.mallarino@osupytheas.fr
Project:EMSO http://www.emso-fr.org/EMSO-France
Depth: 2436.0 m
Title:EMSO Ligure Ouest : Data MII capteur AQUADOPP
Date,Latitude,Longitude,X_East,Y_North,Z_Up,Amplitude_X,Amplitude_Y,Amplitude_Z,Batterie,SoundSpeed,Heading,Pitch,Roll,Pressure,TIS,Speed,Direction
, degrees North, degrees East, m.s-1, m.s-1,m.s-1, 1, 1, 1, Volt, m.s-1, degree, degree, degree, dbar, degree_C, m.s-1, degree
2022-11-08T00:04:03,42.805,6.029,0.019,-0.018,0.005,102.0,101.0,101.0,13.3,1505.2,329.1,-0.8,1.8,2471.1,13.28,0.026,133.5
2022-11-08T00:07:03,42.805,6.029,-0.005,-0.03,-0.037,102.0,102.0,101.0,13.4,1505.2,332.5,-0.8,1.8,2471.081,13.28,0.03,189.5
2022-11-08T00:10:03,42.805,6.029,0.021,-0.032,-0.017,102.0,102.0,101.0,13.4,1505.2,329.2,-0.8,1.8,2471.081,13.28,0.038,146.7
2022-11-08T00:13:03,42.805,6.029,0.013,-0.02,-0.008,102.0,103.0,101.0,13.3,1505.2,332.8,-0.8,1.8,2471.108,13.28,0.023,147.0
2022-11-08T00:16:03,42.805,6.029,0.047,-0.012,0.009,102.0,102.0,101.0,13.4,1505.2,319.1,-0.7,1.8,2471.061,13.29,0.048,104.3
2022-11-08T00:19:03,42.805,6.029,0.005,-0.029,-0.016,102.0,102.0,101.0,13.4,1505.2,327.8,-0.8,1.9,2471.052,13.29,0.029,170.2
2022-11-08T00:22:03,42.805,6.029,0.004,-0.017,0.001,101.0,102.0,101.0,13.4,1505.2,322.1,-0.8,1.8,2471.057,13.29,0.017,166.8
2022-11-08T00:25:03,42.805,6.029,0.015,-0.02,0.025,101.0,102.0,100.0,13.4,1505.2,324.3,-0.7,1.8,2471.074,13.29,0.025,143.1
2022-11-08T00:28:03,42.805,6.029,0.01,-0.014,-0.001,100.0,103.0,101.0,13.4,1505.2,329.8,-0.8,1.8,2471.079,13.29,0.017,144.5
2022-11-08T00:31:03,42.805,6.029,0.02,-0.014,0.011,104.0,102.0,101.0,13.3,1505.2,318.1,-0.7,1.8,2471.053,13.29,0.024,125.0
2022-11-08T00:34:03,42.805,6.029,0.007,-0.031,-0.03,102.0,104.0,100.0,13.3,1505.2,332.1,-0.8,1.8,2471.082,13.29,0.031,167.3
2022-11-08T00:37:03,42.805,6.029,0.022,-0.019,0.007,101.0,102.0,101.0,13.4,1505.2,334.7,-0.8,1.8,2471.069,13.29,0.029,130.8
2022-11-08T00:40:03,42.805,6.029,0.034,-0.022,0.004,102.0,103.0,101.0,13.4,1505.2,318.8,-0.8,1.8,2471.055,13.29,0.04,122.9
2022-11-08T00:43:03,42.805,6.029,-0.002,-0.026,-0.005,102.0,105.0,101.0,13.3,1505.2,331.3,-0.8,1.8,2471.011,13.29,0.026,184.4
2022-11-08T00:46:03,42.805,6.029,0.023,-0.029,-0.017,100.0,102.0,102.0,13.4,1505.2,319.8,-0.8,1.8,2471.061,13.29,0.037,141.6
2022-11-08T00:49:03,42.805,6.029,0.02,-0.02,0.025,103.0,102.0,101.0,13.4,1505.2,327.9,-0.8,1.8,2471.057,13.29,0.028,135.0
2022-11-08T00:52:03,42.805,6.029,0.022,-0.028,0.015,101.0,102.0,101.0,13.3,1505.2,324.3,-0.7,1.8,2471.054,13.29,0.035,141.8
2022-11-08T00:55:03,42.805,6.029,0.006,-0.008,0.002,102.0,102.0,102.0,13.4,1505.2,325.1,-0.7,1.8,2471.093,13.29,0.01,143.1
2022-11-08T00:58:03,42.805,6.029,0.017,-0.024,0.006,103.0,102.0,101.0,13.4,1505.2,323.9,-0.8,1.8,2471.087,13.29,0.029,144.7
2022-11-08T01:04:03,42.805,6.029,0.022,-0.01,-0.014,104.0,104.0,103.0,13.3,1505.2,331.2,-0.8,1.8,2471.079,13.28,0.024,114.4
2022-11-08T01:07:02,42.805,6.029,0.03,-0.029,0.003,105.0,103.0,100.0,13.4,1505.2,335.8,-0.8,1.8,2471.1,13.28,0.041,134.0
2022-11-08T01:10:03,42.805,6.029,0.014,-0.026,-0.012,103.0,102.0,101.0,13.4,1505.2,317.2,-0.8,1.8,2471.085,13.28,0.029,151.7
2022-11-08T01:13:03,42.805,6.029,0.0,-0.027,0.006,103.0,103.0,101.0,13.3,1505.2,327.8,-0.8,1.8,2471.074,13.28,0.026,180.0
2022-11-08T01:16:03,42.805,6.029,0.023,-0.024,0.013,103.0,103.0,101.0,13.3,1505.2,329.6,-0.8,1.8,2471.051,13.29,0.033,136.2
2022-11-08T01:19:03,42.805,6.029,0.03,-0.033,-0.015,103.0,102.0,101.0,13.3,1505.2,317.8,-0.8,1.8,2471.051,13.28,0.044,137.7
2022-11-08T01:22:03,42.805,6.029,0.032,-0.035,0.024,103.0,102.0,101.0,13.3,1505.2,330.3,-0.8,1.8,2471.074,13.29,0.047,137.6
2022-11-08T01:25:03,42.805,6.029,0.02,-0.017,0.015,102.0,102.0,102.0,13.3,1505.2,318.5,-0.7,1.8,2471.03,13.29,0.026,130.4
2022-11-08T01:28:03,42.805,6.029,0.008,-0.029,0.002,102.0,103.0,102.0,13.3,1505.2,328.6,-0.8,1.8,2471.061,13.29,0.03,164.6
2022-11-08T01:31:03,42.805,6.029,0.008,-0.025,0.024,103.0,102.0,102.0,13.4,1505.2,330.8,-0.8,1.9,2471.07,13.29,0.026,162.3
2022-11-08T01:34:03,42.805,6.029,0.024,-0.028,-0.014,102.0,102.0,101.0,13.4,1505.2,327.9,-0.8,1.8,2471.078,13.29,0.036,139.4
2022-11-08T01:37:03,42.805,6.029,0.022,-0.027,-0.016,103.0,102.0,102.0,13.3,1505.2,321.5,-0.8,1.8,2471.074,13.29,0.034,140.8
2022-11-08T01:40:03,42.805,6.029,0.029,-0.034,-0.019,102.0,104.0,100.0,13.4,1505.2,328.2,-0.8,1.8,2471.067,13.29,0.044,139.5
2022-11-08T01:43:03,42.805,6.029,0.035,-0.028,0.025,104.0,103.0,101.0,13.3,1505.2,320.6,-0.7,1.9,2471.031,13.29,0.044,128.7
2022-11-08T01:46:03,42.805,6.029,-0.006,-0.016,-0.018,103.0,102.0,101.0,13.3,1505.2,317.2,-0.8,1.8,2471.062,13.29,0.017,200.6
2022-11-08T01:49:03,42.805,6.029,-0.01,-0.031,0.004,103.0,103.0,101.0,13.4,1505.2,325.6,-0.8,1.8,2471.084,13.29,0.032,197.9
2022-11-08T01:52:03,42.805,6.029,0.008,-0.033,-0.004,103.0,102.0,101.0,13.3,1505.2,323.6,-0.7,1.8,2471.066,13.29,0.033,166.4
2022-11-08T01:55:03,42.805,6.029,0.015,-0.017,-0.006,102.0,103.0,101.0,13.3,1505.2,327.1,-0.7,1.8,2471.088,13.29,0.022,138.6
2022-11-08T01:58:03,42.805,6.029,0.022,-0.035,0.019,102.0,103.0,101.0,13.4,1505.2,327.4,-0.8,1.8,2471.026,13.29,0.041,147.8
2022-11-08T02:04:03,42.805,6.029,0.019,-0.027,0.001,102.0,103.0,102.0,13.3,1505.2,324.0,-0.8,1.8,2471.1,13.28,0.033,144.9
2022-11-08T02:07:03,42.805,6.029,0.013,-0.038,0.018,102.0,101.0,101.0,13.4,1505.2,332.1,-0.8,1.8,2471.059,13.28,0.04,161.1
2022-11-08T02:10:03,42.805,6.029,0.018,-0.032,0.024,103.0,102.0,100.0,13.4,1505.2,328.7,-0.8,1.8,2471.09,13.28,0.036,150.6
2022-11-08T02:13:03,42.805,6.029,0.016,-0.022,0.017,103.0,101.0,101.0,13.4,1505.2,322.9,-0.7,1.8,2471.113,13.28,0.027,144.0
2022-11-08T02:16:03,42.805,6.029,0.023,-0.018,0.031,102.0,103.0,102.0,13.4,1505.2,324.8,-0.8,1.8,2471.106,13.28,0.029,128.0
2022-11-08T02:19:03,42.805,6.029,0.03,-0.04,0.006,102.0,102.0,101.0,13.4,1505.2,326.1,-0.8,1.8,2471.062,13.28,0.05,143.1
2022-11-08T02:22:03,42.805,6.029,0.03,-0.055,-0.008,103.0,101.0,101.0,13.3,1505.2,323.7,-0.8,1.8,2471.064,13.29,0.062,151.4
2022-11-08T02:25:03,42.805,6.029,0.03,-0.027,0.018,102.0,103.0,100.0,13.4,1505.2,325.4,-0.7,1.8,2471.066,13.29,0.04,132.0
2022-11-08T02:28:03,42.805,6.029,0.02,-0.008,-0.011,104.0,100.0,100.0,13.4,1505.2,317.9,-0.8,1.8,2471.061,13.29,0.021,111.8
2022-11-08T02:31:03,42.805,6.029,0.026,-0.034,0.025,101.0,102.0,102.0,13.4,1505.2,329.9,-0.7,1.8,2471.066,13.29,0.042,142.6
2022-11-08T02:34:03,42.805,6.029,0.014,-0.034,0.021,103.0,102.0,101.0,13.4,1505.2,334.3,-0.7,1.8,2471.088,13.29,0.036,157.6
2022-11-08T02:37:03,42.805,6.029,0.011,-0.015,-0.004,104.0,102.0,101.0,13.4,1505.2,334.8,-0.8,1.8,2471.057,13.29,0.018,143.7
2022-11-08T02:40:03,42.805,6.029,0.009,-0.048,-0.022,102.0,103.0,101.0,13.4,1505.2,322.8,-0.7,1.8,2471.09,13.29,0.048,169.4
2022-11-08T02:43:03,42.805,6.029,0.009,-0.019,0.001,102.0,102.0,101.0,13.4,1505.2,323.3,-0.8,1.8,2471.033,13.29,0.021,154.7
2022-11-08T02:46:03,42.805,6.029,0.01,-0.022,-0.008,102.0,103.0,101.0,13.3,1505.2,324.8,-0.8,1.8,2471.047,13.29,0.024,155.6
2022-11-08T02:49:03,42.805,6.029,0.001,-0.027,0.026,102.0,102.0,101.0,13.4,1505.2,335.1,-0.8,1.8,2471.062,13.29,0.027,177.9
2022-11-08T02:52:03,42.805,6.029,0.028,-0.014,0.011,103.0,103.0,99.0,13.4,1505.2,325.8,-0.7,1.8,2471.104,13.29,0.031,116.6
2022-11-08T02:55:03,42.805,6.029,0.028,-0.014,0.027,102.0,102.0,100.0,13.4,1505.2,330.0,-0.8,1.8,2471.081,13.29,0.031,116.6
2022-11-08T02:58:03,42.805,6.029,0.009,-0.049,-0.006,102.0,103.0,101.0,13.4,1505.2,328.7,-0.7,1.8,2471.095,13.29,0.049,169.6
2022-11-08T03:04:03,42.805,6.029,0.009,-0.03,0.007,102.0,102.0,101.0,13.4,1505.2,319.4,-0.8,1.8,2471.123,13.28,0.031,163.3
2022-11-08T03:07:03,42.805,6.029,0.054,-0.043,0.008,103.0,101.0,101.0,13.3,1505.2,323.6,-0.8,1.8,2471.121,13.28,0.069,128.5
2022-11-08T03:10:03,42.805,6.029,-0.005,-0.039,-0.031,103.0,102.0,101.0,13.4,1505.2,328.2,-0.7,1.8,2471.151,13.28,0.039,187.3
2022-11-08T03:13:03,42.805,6.029,0.02,-0.02,-0.001,102.0,102.0,100.0,13.4,1505.2,317.7,-0.8,1.8,2471.152,13.28,0.028,135.0
2022-11-08T03:16:03,42.805,6.029,0.0,-0.034,0.008,103.0,102.0,101.0,13.4,1505.2,317.6,-0.7,1.8,2471.161,13.28,0.034,180.0
2022-11-08T03:19:03,42.805,6.029,0.02,-0.026,0.003,102.0,103.0,101.0,13.3,1505.2,323.0,-0.8,1.8,2471.127,13.29,0.032,142.4
2022-11-08T03:22:03,42.805,6.029,0.002,-0.015,0.01,102.0,102.0,101.0,13.4,1505.2,321.5,-0.7,1.8,2471.118,13.29,0.015,172.4
2022-11-08T03:25:03,42.805,6.029,0.013,-0.031,-0.027,103.0,102.0,102.0,13.4,1505.2,326.3,-0.8,1.8,2471.139,13.29,0.033,157.3
2022-11-08T03:28:03,42.805,6.029,0.022,-0.016,-0.02,103.0,102.0,101.0,13.3,1505.2,324.6,-0.8,1.8,2471.117,13.29,0.027,126.0
2022-11-08T03:31:03,42.805,6.029,0.014,-0.048,0.014,104.0,102.0,101.0,13.3,1505.2,320.6,-0.8,1.8,2471.145,13.29,0.05,163.7
2022-11-08T03:34:03,42.805,6.029,0.049,-0.017,-0.003,103.0,102.0,101.0,13.4,1505.2,319.9,-0.8,1.8,2471.122,13.29,0.051,109.1
2022-11-08T03:37:03,42.805,6.029,0.023,-0.021,0.014,102.0,102.0,101.0,13.4,1505.2,319.1,-0.7,1.8,2471.101,13.29,0.031,132.4
2022-11-08T03:40:03,42.805,6.029,0.02,-0.018,0.027,102.0,102.0,100.0,13.4,1505.2,325.0,-0.7,1.8,2471.132,13.29,0.026,132.0
2022-11-08T03:43:03,42.805,6.029,0.027,-0.039,0.023,102.0,101.0,102.0,13.4,1505.2,330.8,-0.7,1.9,2471.095,13.29,0.047,145.3
2022-11-08T03:46:03,42.805,6.029,0.051,-0.034,0.012,102.0,102.0,101.0,13.4,1505.2,317.4,-0.8,1.8,2471.119,13.29,0.061,123.7
2022-11-08T03:49:03,42.805,6.029,0.042,-0.044,-0.012,103.0,103.0,101.0,13.4,1505.2,319.1,-0.8,1.8,2471.162,13.29,0.06,136.3
2022-11-08T03:52:03,42.805,6.029,0.016,-0.033,0.004,101.0,102.0,102.0,13.4,1505.2,331.0,-0.8,1.8,2471.171,13.29,0.036,154.1
2022-11-08T03:55:03,42.805,6.029,0.011,-0.024,-0.01,103.0,102.0,101.0,13.3,1505.2,326.1,-0.7,1.8,2471.109,13.29,0.026,155.4
2022-11-08T03:58:03,42.805,6.029,0.022,-0.043,0.001,103.0,102.0,101.0,13.3,1505.2,324.2,-0.8,1.8,2471.171,13.29,0.048,152.9
2022-11-08T04:04:03,42.805,6.029,0.039,-0.034,-0.006,102.0,103.0,101.0,13.4,1505.2,325.9,-0.7,1.8,2471.202,13.28,0.051,131.1
2022-11-08T04:07:03,42.805,6.029,0.03,-0.013,0.024,103.0,100.0,101.0,13.3,1505.2,321.6,-0.8,1.8,2471.196,13.28,0.032,113.4
2022-11-08T04:10:03,42.805,6.029,0.021,-0.047,0.01,100.0,103.0,102.0,13.3,1505.2,325.3,-0.7,1.8,2471.169,13.28,0.051,155.9
2022-11-08T04:13:03,42.805,6.029,0.001,-0.032,-0.01,102.0,101.0,102.0,13.3,1505.2,326.3,-0.8,1.8,2471.158,13.28,0.032,178.2
2022-11-08T04:16:03,42.805,6.029,0.022,-0.024,-0.015,103.0,103.0,101.0,13.4,1505.2,327.1,-0.8,1.8,2471.217,13.28,0.032,137.5
2022-11-08T04:19:03,42.805,6.029,0.021,-0.038,0.018,102.0,102.0,101.0,13.4,1505.2,330.8,-0.8,1.8,2471.183,13.29,0.043,151.1
2022-11-08T04:22:03,42.805,6.029,0.03,-0.036,0.015,102.0,102.0,101.0,13.4,1505.2,317.8,-0.7,1.8,2471.169,13.29,0.046,140.2
2022-11-08T04:25:03,42.805,6.029,0.006,-0.037,-0.009,103.0,101.0,101.0,13.4,1505.2,329.8,-0.8,1.8,2471.171,13.29,0.037,170.8
2022-11-08T04:28:03,42.805,6.029,0.023,-0.018,0.013,104.0,102.0,100.0,13.3,1505.2,323.2,-0.7,1.8,2471.182,13.29,0.029,128.0
2022-11-08T04:31:03,42.805,6.029,0.043,-0.024,0.025,102.0,103.0,102.0,13.4,1505.2,325.3,-0.8,1.8,2471.216,13.29,0.049,119.2
2022-11-08T04:34:03,42.805,6.029,0.016,-0.036,0.01,103.0,103.0,100.0,13.4,1505.2,329.6,-0.8,1.8,2471.18,13.29,0.039,156.0
2022-11-08T04:37:03,42.805,6.029,0.024,-0.017,0.004,101.0,103.0,101.0,13.3,1505.2,317.7,-0.8,1.8,2471.174,13.29,0.029,125.3
2022-11-08T04:40:03,42.805,6.029,0.028,-0.053,0.01,101.0,103.0,101.0,13.3,1505.2,331.0,-0.8,1.8,2471.211,13.29,0.059,152.1
2022-11-08T04:43:03,42.805,6.029,0.01,-0.019,0.004,101.0,103.0,102.0,13.3,1505.2,323.7,-0.8,1.8,2471.185,13.29,0.021,152.2
2022-11-08T04:46:03,42.805,6.029,-0.003,-0.019,-0.003,103.0,102.0,100.0,13.4,1505.2,333.4,-0.8,1.8,2471.181,13.29,0.019,189.0
2022-11-08T04:49:03,42.805,6.029,0.028,-0.037,-0.006,103.0,103.0,101.0,13.3,1505.2,325.0,-0.8,1.8,2471.217,13.29,0.046,142.9
2022-11-08T04:52:03,42.805,6.029,0.007,-0.05,-0.014,102.0,102.0,101.0,13.3,1505.2,326.3,-0.7,1.8,2471.198,13.29,0.05,172.0
2022-11-08T04:55:03,42.805,6.029,0.007,-0.022,0.017,103.0,102.0,101.0,13.3,1505.2,323.4,-0.7,1.9,2471.202,13.29,0.023,162.4
2022-11-08T04:58:03,42.805,6.029,0.016,-0.035,0.021,102.0,102.0,101.0,13.4,1505.2,325.7,-0.7,1.8,2471.2,13.29,0.038,155.4
2022-11-08T05:04:03,42.805,6.029,0.014,-0.048,-0.025,102.0,104.0,101.0,13.3,1505.2,320.1,-0.8,1.8,2471.237,13.28,0.05,163.7
2022-11-08T05:07:03,42.805,6.029,0.019,-0.029,0.018,101.0,103.0,101.0,13.4,1505.2,326.5,-0.7,1.8,2471.248,13.28,0.034,146.8
2022-11-08T05:10:03,42.805,6.029,0.007,0.003,0.019,104.0,103.0,100.0,13.4,1505.2,323.7,-0.8,1.8,2471.281,13.28,0.007,66.8
2022-11-08T05:13:03,42.805,6.029,0.011,-0.037,-0.007,103.0,102.0,101.0,13.4,1505.2,320.9,-0.8,1.8,2471.212,13.28,0.038,163.4
2022-11-08T05:16:03,42.805,6.029,0.024,-0.039,-0.019,101.0,103.0,101.0,13.4,1505.2,327.8,-0.8,1.8,2471.221,13.28,0.045,148.4
2022-11-08T05:19:03,42.805,6.029,0.012,-0.025,0.011,103.0,102.0,101.0,13.3,1505.2,322.4,-0.8,1.8,2471.254,13.29,0.027,154.4
2022-11-08T05:22:03,42.805,6.029,0.021,-0.041,-0.005,102.0,102.0,101.0,13.4,1505.2,322.9,-0.7,1.8,2471.257,13.29,0.046,152.9
2022-11-08T05:25:03,42.805,6.029,0.014,-0.039,0.021,103.0,102.0,101.0,13.4,1505.2,327.7,-0.8,1.9,2471.249,13.29,0.041,160.3
2022-11-08T05:28:03,42.805,6.029,0.017,-0.007,0.018,104.0,102.0,101.0,13.4,1505.2,323.2,-0.8,1.8,2471.212,13.29,0.018,112.4
2022-11-08T05:31:03,42.805,6.029,0.006,-0.02,-0.008,102.0,102.0,101.0,13.4,1505.2,324.2,-0.7,1.8,2471.261,13.29,0.02,163.3
2022-11-08T05:34:03,42.805,6.029,0.005,-0.029,-0.009,103.0,103.0,100.0,13.3,1505.2,324.6,-0.7,1.9,2471.26,13.29,0.029,170.2
2022-11-08T05:37:03,42.805,6.029,0.015,-0.042,-0.011,102.0,102.0,102.0,13.3,1505.2,328.9,-0.8,1.8,2471.247,13.29,0.044,160.4
2022-11-08T05:40:03,42.805,6.029,0.009,-0.032,-0.041,103.0,102.0,101.0,13.4,1505.2,333.0,-0.8,1.8,2471.242,13.29,0.033,164.3
2022-11-08T05:43:03,42.805,6.029,0.005,-0.022,-0.023,102.0,102.0,101.0,13.4,1505.2,316.7,-0.7,1.8,2471.212,13.29,0.022,167.2
2022-11-08T05:46:03,42.805,6.029,0.009,-0.029,0.011,103.0,102.0,101.0,13.4,1505.2,328.3,-0.7,1.8,2471.248,13.29,0.03,162.8
2022-11-08T05:49:03,42.805,6.029,0.017,-0.015,0.021,102.0,103.0,100.0,13.3,1505.2,324.6,-0.7,1.8,2471.264,13.29,0.022,131.4
2022-11-08T05:52:03,42.805,6.029,0.015,-0.042,-0.01,102.0,103.0,101.0,13.3,1505.2,324.9,-0.8,1.8,2471.26,13.29,0.044,160.4
2022-11-08T05:55:03,42.805,6.029,0.022,-0.022,-0.003,102.0,102.0,101.0,13.3,1505.2,321.5,-0.8,1.8,2471.255,13.29,0.031,135.0
2022-11-08T05:58:03,42.805,6.029,0.029,-0.044,-0.006,102.0,102.0,101.0,13.3,1505.2,326.6,-0.8,1.8,2471.228,13.29,0.052,146.6
2022-11-08T06:04:03,42.805,6.029,0.004,-0.019,0.013,102.0,102.0,101.0,13.4,1505.2,325.9,-0.8,1.8,2471.308,13.28,0.019,168.1
2022-11-08T06:07:03,42.805,6.029,0.005,-0.012,-0.017,101.0,103.0,101.0,13.4,1505.2,325.2,-0.7,1.8,2471.314,13.28,0.013,157.4
2022-11-08T06:10:03,42.805,6.029,0.0,-0.03,-0.012,103.0,102.0,101.0,13.4,1505.2,321.4,-0.8,1.8,2471.28,13.28,0.03,180.0
2022-11-08T06:13:03,42.805,6.029,-0.015,-0.03,-0.019,103.0,101.0,101.0,13.3,1505.2,319.8,-0.8,1.8,2471.322,13.28,0.033,206.6
2022-11-08T06:16:03,42.805,6.029,0.002,-0.038,0.0,102.0,103.0,100.0,13.4,1505.2,324.6,-0.7,1.8,2471.307,13.29,0.038,177.0
2022-11-08T06:19:03,42.805,6.029,0.001,-0.024,0.024,101.0,102.0,101.0,13.4,1505.2,327.9,-0.7,1.8,2471.277,13.29,0.024,177.6
2022-11-08T06:22:03,42.805,6.029,-0.001,-0.03,-0.008,101.0,103.0,101.0,13.4,1505.2,324.1,-0.7,1.8,2471.275,13.29,0.03,181.9
2022-11-08T06:25:03,42.805,6.029,-0.02,-0.031,-0.016,103.0,100.0,103.0,13.4,1505.2,320.5,-0.8,1.8,2471.25,13.29,0.036,212.8
2022-11-08T06:28:03,42.805,6.029,-0.01,-0.026,-0.004,101.0,102.0,102.0,13.4,1505.2,321.0,-0.8,1.8,2471.308,13.29,0.027,201.0
2022-11-08T06:31:03,42.805,6.029,0.016,-0.041,0.002,103.0,102.0,101.0,13.4,1505.2,332.7,-0.8,1.8,2471.258,13.29,0.044,158.7
2022-11-08T06:34:03,42.805,6.029,0.01,-0.019,0.014,101.0,103.0,101.0,13.4,1505.2,329.8,-0.8,1.8,2471.294,13.29,0.021,152.2
2022-11-08T06:37:03,42.805,6.029,-0.007,-0.011,0.031,103.0,102.0,101.0,13.3,1505.2,323.4,-0.8,1.8,2471.299,13.29,0.013,212.5
2022-11-08T06:40:03,42.805,6.029,0.007,-0.02,-0.001,103.0,104.0,102.0,13.4,1505.2,327.4,-0.8,1.8,2471.323,13.29,0.021,160.7
2022-11-08T06:43:03,42.805,6.029,0.009,-0.026,0.001,102.0,103.0,100.0,13.4,1505.2,319.6,-0.8,1.8,2471.28,13.29,0.027,160.9
2022-11-08T06:46:03,42.805,6.029,0.007,-0.035,0.016,104.0,101.0,101.0,13.4,1505.2,334.8,-0.8,1.8,2471.252,13.29,0.035,168.7
2022-11-08T06:49:03,42.805,6.029,0.004,-0.038,-0.018,101.0,103.0,101.0,13.3,1505.2,320.1,-0.7,1.8,2471.265,13.29,0.038,174.0
2022-11-08T06:52:03,42.805,6.029,-0.009,-0.034,0.001,102.0,102.0,101.0,13.3,1505.2,335.7,-0.8,1.8,2471.305,13.29,0.035,194.8
2022-11-08T06:55:03,42.805,6.029,0.004,-0.031,-0.01,102.0,102.0,102.0,13.4,1505.2,324.2,-0.8,1.8,2471.238,13.29,0.031,172.7
2022-11-08T06:58:03,42.805,6.029,0.003,-0.012,0.006,103.0,103.0,101.0,13.3,1505.2,320.8,-0.8,1.8,2471.302,13.29,0.012,166.0
2022-11-08T07:04:03,42.805,6.029,0.026,-0.029,-0.031,102.0,101.0,101.0,13.4,1505.2,317.6,-0.8,1.8,2471.268,13.28,0.038,138.1
2022-11-08T07:07:03,42.805,6.029,0.0,-0.046,-0.011,103.0,103.0,101.0,13.3,1505.2,331.0,-0.7,1.8,2471.291,13.28,0.046,180.0
2022-11-08T07:10:03,42.805,6.029,-0.012,-0.015,-0.012,102.0,103.0,101.0,13.4,1505.2,330.7,-0.8,1.8,2471.327,13.28,0.019,218.7
2022-11-08T07:13:03,42.805,6.029,-0.015,-0.017,-0.005,103.0,103.0,101.0,13.4,1505.2,330.8,-0.7,1.8,2471.327,13.29,0.022,221.4
2022-11-08T07:16:03,42.805,6.029,-0.031,-0.017,-0.008,103.0,102.0,102.0,13.3,1505.2,323.8,-0.8,1.8,2471.299,13.29,0.035,241.3
2022-11-08T07:19:03,42.805,6.029,0.01,-0.032,-0.002,103.0,103.0,102.0,13.3,1505.2,327.5,-0.8,1.8,2471.307,13.29,0.033,162.6
2022-11-08T07:22:03,42.805,6.029,0.011,-0.024,0.003,103.0,104.0,102.0,13.4,1505.2,333.7,-0.8,1.8,2471.337,13.29,0.026,155.4
2022-11-08T07:25:03,42.805,6.029,0.003,-0.017,-0.005,103.0,103.0,101.0,13.4,1505.2,333.4,-0.7,1.8,2471.271,13.29,0.017,170.0
2022-11-08T07:28:03,42.805,6.029,-0.008,-0.004,0.014,103.0,102.0,102.0,13.3,1505.2,328.3,-0.7,1.8,2471.301,13.29,0.008,243.4
2022-11-08T07:31:03,42.805,6.029,0.003,-0.011,-0.003,103.0,102.0,102.0,13.4,1505.2,330.2,-0.8,1.8,2471.311,13.29,0.011,164.7
2022-11-08T07:34:03,42.805,6.029,-0.018,0.004,0.011,103.0,104.0,100.0,13.4,1505.2,325.9,-0.8,1.8,2471.3,13.29,0.018,282.5
2022-11-08T07:37:03,42.805,6.029,-0.014,-0.039,-0.011,102.0,102.0,101.0,13.3,1505.2,330.6,-0.8,1.8,2471.289,13.29,0.041,199.7
2022-11-08T07:40:03,42.805,6.029,-0.005,-0.022,-0.003,104.0,103.0,101.0,13.4,1505.2,328.0,-0.7,1.8,2471.269,13.29,0.022,192.8
2022-11-08T07:43:03,42.805,6.029,0.0,-0.035,-0.006,103.0,103.0,101.0,13.4,1505.2,325.0,-0.7,1.8,2471.274,13.29,0.035,180.0
2022-11-08T07:46:03,42.805,6.029,0.012,-0.028,0.001,103.0,103.0,101.0,13.4,1505.2,334.7,-0.7,1.8,2471.274,13.29,0.03,156.8
2022-11-08T07:49:03,42.805,6.029,0.0,-0.02,-0.026,102.0,103.0,102.0,13.3,1505.2,321.8,-0.8,1.8,2471.295,13.29,0.02,180.0
2022-11-08T07:52:03,42.805,6.029,0.003,-0.026,0.002,101.0,103.0,102.0,13.4,1505.2,327.9,-0.8,1.8,2471.243,13.29,0.026,173.4
2022-11-08T07:55:03,42.805,6.029,-0.006,-0.03,0.003,103.0,102.0,101.0,13.3,1505.2,329.1,-0.7,1.8,2471.296,13.29,0.03,191.3
2022-11-08T07:58:03,42.805,6.029,-0.003,-0.021,-0.016,102.0,103.0,102.0,13.4,1505.2,327.6,-0.8,1.8,2471.253,13.29,0.021,188.1
2022-11-08T08:04:03,42.805,6.029,-0.012,-0.036,-0.001,103.0,103.0,101.0,13.4,1505.2,335.1,-0.8,1.8,2471.322,13.28,0.037,198.4
2022-11-08T08:07:03,42.805,6.029,-0.001,-0.022,0.023,103.0,103.0,101.0,13.3,1505.2,318.3,-0.8,1.8,2471.302,13.28,0.022,182.6
2022-11-08T08:10:03,42.805,6.029,0.004,-0.026,-0.013,102.0,103.0,102.0,13.4,1505.2,329.9,-0.8,1.8,2471.317,13.28,0.026,171.3
2022-11-08T08:13:03,42.805,6.029,-0.011,-0.045,-0.035,101.0,103.0,102.0,13.4,1505.2,328.4,-0.8,1.8,2471.323,13.29,0.046,193.7
2022-11-08T08:16:03,42.805,6.029,-0.007,-0.02,0.017,103.0,103.0,101.0,13.3,1505.2,335.4,-0.7,1.8,2471.266,13.29,0.021,199.3
2022-11-08T08:19:03,42.805,6.029,0.005,-0.028,-0.019,102.0,103.0,101.0,13.3,1505.2,333.4,-0.8,1.8,2471.272,13.29,0.028,169.9
2022-11-08T08:22:03,42.805,6.029,0.004,-0.02,-0.028,101.0,103.0,102.0,13.4,1505.2,323.4,-0.7,1.8,2471.319,13.29,0.02,168.7
2022-11-08T08:25:03,42.805,6.029,0.01,0.0,-0.005,102.0,102.0,101.0,13.4,1505.2,319.7,-0.8,1.8,2471.302,13.29,0.01,90.0
2022-11-08T08:28:03,42.805,6.029,-0.01,-0.028,-0.033,102.0,102.0,101.0,13.4,1505.2,329.2,-0.8,1.9,2471.267,13.29,0.029,199.6
2022-11-08T08:31:03,42.805,6.029,0.018,-0.021,0.012,102.0,102.0,101.0,13.4,1505.2,328.5,-0.8,1.8,2471.304,13.29,0.027,139.4
2022-11-08T08:34:03,42.805,6.029,0.011,-0.046,-0.011,102.0,101.0,101.0,13.4,1505.2,320.1,-0.8,1.9,2471.241,13.29,0.047,166.6
2022-11-08T08:37:03,42.805,6.029,0.011,-0.024,-0.003,103.0,102.0,101.0,13.4,1505.2,328.7,-0.7,1.8,2471.275,13.29,0.026,155.4
2022-11-08T08:40:03,42.805,6.029,-0.011,-0.019,0.006,102.0,102.0,101.0,13.3,1505.2,335.4,-0.8,1.8,2471.243,13.29,0.021,210.1
2022-11-08T08:43:03,42.805,6.029,-0.022,-0.028,-0.051,102.0,102.0,101.0,13.4,1505.2,329.5,-0.8,1.8,2471.256,13.29,0.035,218.2
2022-11-08T08:46:03,42.805,6.029,-0.015,-0.024,0.005,102.0,103.0,102.0,13.4,1505.2,324.7,-0.7,1.8,2471.251,13.29,0.028,212.0
2022-11-08T08:49:03,42.805,6.029,0.013,-0.032,-0.017,101.0,103.0,102.0,13.4,1505.2,328.2,-0.8,1.8,2471.273,13.29,0.034,157.9
2022-11-08T08:52:03,42.805,6.029,-0.004,-0.031,0.013,102.0,102.0,101.0,13.4,1505.2,331.0,-0.7,1.8,2471.256,13.29,0.031,187.3
2022-11-08T08:55:03,42.805,6.029,0.0,-0.033,-0.024,103.0,103.0,101.0,13.4,1505.2,330.7,-0.8,1.8,2471.249,13.29,0.033,180.0
2022-11-08T08:58:03,42.805,6.029,0.023,0.001,0.008,104.0,103.0,101.0,13.4,1505.2,318.0,-0.8,1.8,2471.285,13.29,0.023,87.5
2022-11-08T09:04:03,42.805,6.029,0.021,-0.027,0.004,103.0,102.0,101.0,13.4,1505.2,316.8,-0.7,1.8,2471.273,13.28,0.034,142.1
2022-11-08T09:07:03,42.805,6.029,0.004,-0.014,-0.009,103.0,102.0,102.0,13.4,1505.2,334.0,-0.7,1.9,2471.256,13.28,0.014,164.1
2022-11-08T09:10:03,42.805,6.029,0.004,-0.01,0.001,103.0,102.0,102.0,13.3,1505.2,322.2,-0.8,1.8,2471.268,13.28,0.01,158.2
2022-11-08T09:13:03,42.805,6.029,-0.004,-0.033,-0.015,102.0,101.0,102.0,13.3,1505.2,328.6,-0.8,1.8,2471.263,13.28,0.033,186.9
2022-11-08T09:16:03,42.805,6.029,-0.006,-0.016,-0.034,103.0,103.0,101.0,13.4,1505.2,321.5,-0.8,1.8,2471.256,13.29,0.017,200.6
2022-11-08T09:19:03,42.805,6.029,-0.004,-0.02,0.025,103.0,103.0,101.0,13.4,1505.2,328.2,-0.8,1.8,2471.234,13.29,0.02,191.3
2022-11-08T09:22:03,42.805,6.029,0.009,-0.055,-0.029,103.0,103.0,100.0,13.4,1505.2,326.8,-0.8,1.8,2471.231,13.29,0.055,170.7
2022-11-08T09:25:03,42.805,6.029,0.004,-0.03,-0.008,102.0,102.0,101.0,13.3,1505.2,330.7,-0.8,1.8,2471.224,13.29,0.03,172.4
2022-11-08T09:28:03,42.805,6.029,0.019,-0.025,-0.012,102.0,102.0,101.0,13.4,1505.2,323.5,-0.7,1.8,2471.253,13.29,0.031,142.8
2022-11-08T09:31:03,42.805,6.029,0.003,-0.019,0.002,102.0,102.0,101.0,13.4,1505.2,322.0,-0.8,1.8,2471.219,13.29,0.019,171.0
2022-11-08T09:34:03,42.805,6.029,0.028,-0.01,0.0,103.0,102.0,101.0,13.4,1505.2,321.4,-0.7,1.8,2471.21,13.29,0.029,109.6
2022-11-08T09:37:03,42.805,6.029,0.018,-0.007,0.046,103.0,103.0,102.0,13.3,1505.2,324.5,-0.8,1.8,2471.212,13.29,0.019,111.2
2022-11-08T09:40:03,42.805,6.029,0.027,-0.022,0.014,103.0,102.0,101.0,13.4,1505.2,328.5,-0.8,1.8,2471.226,13.29,0.034,129.2
2022-11-08T09:43:03,42.805,6.029,0.007,-0.027,0.002,103.0,102.0,101.0,13.4,1505.2,321.6,-0.8,1.8,2471.198,13.29,0.027,165.5
2022-11-08T09:46:03,42.805,6.029,0.0,-0.033,-0.031,102.0,102.0,101.0,13.3,1505.2,322.1,-0.7,1.8,2471.207,13.29,0.033,180.0
2022-11-08T09:49:03,42.805,6.029,0.0,-0.023,-0.003,103.0,102.0,101.0,13.4,1505.2,327.0,-0.7,1.8,2471.18,13.29,0.023,180.0
2022-11-08T09:52:03,42.805,6.029,0.02,-0.032,0.002,102.0,103.0,102.0,13.3,1505.2,321.9,-0.8,1.8,2471.204,13.29,0.037,148.0
2022-11-08T09:55:03,42.805,6.029,0.027,-0.017,0.005,102.0,103.0,101.0,13.4,1505.2,328.2,-0.7,1.8,2471.191,13.29,0.031,122.2